Pour une meilleure expérience, merci d'orienter votre écran en mode paysage.

rotate

Club de Triathlon : E.C. SARTROUVILLE

Le club de Triathlon E.C. SARTROUVILLE se situe dans la ville de SARTROUVILLE (78 - Yvelines). Le club est affilié à la ligue régionale ILE-DE-FRANCE de la FFTRI - Fédération Française de Triathlon. Retrouvez ici toute l'activité du club de Triathlon E.C. SARTROUVILLE - Résultats, podiums, objectifs, effectifs....

Site internet : https://sartrouville-triathlon.com

Page Facebook : https://www.facebook.com/groups/ECSTri

Résultats de la saison en cours

CltClt FDateEpreuveNomIPRNbTempsGAClt/GAIP
14 23/10/2022Duathlon d'Arboussols (66) - S Christophe DEDOUCHE0271h30'37''MV2353Sa course
12 02/10/2022SwimRun Cergy Val d'Oise (95) - M Vincent CAILLAUD71501h58'29''MV1 280Sa course
192 18/09/2022Triathlon Audencia La Baule (44) - M Franck DECUGNIERE709012h26'33''MV22879Sa course
87212218/09/2022Triathlon Audencia La Baule (44) - M Stéphanie DESSALINS39013h35'16''FV2121Sa course
9 18/09/2022VentouxMan (84) - Expérience Geoffroi SOURON01072h27'15''MS33102Sa course
164 18/09/2022Triathlon des Vikings (14) - M Pascal LUCAS352733h16'24''MV31337Sa course
107 11/09/2022TriaCourt Ile de France (77) - M Pascal MINGRET705742h06'52''MS41682Sa course
350 11/09/2022TriaCourt Ile de France (77) - M Pascal LUCAS355742h24'43''MV33539Sa course
56 11/09/2022Triathlon de Dinard Côte d'Emeraude (35) - M Vincent CAILLAUD716592h36'07''MVE1694Sa course
17 11/09/2022TriaLong Ile de France (77) - L Gauthier COLIN02344h22'29''MS3297Sa course
248 21/08/2022Triathlon du Mont Blanc (74) - L Jean-luc POTIER423006h55'46''013Sa course
186235520/08/2022IronMan 70.3 de Vichy (03) - Triathlon L Marie GRENOUILLET020406h02'53''F25-29967Sa course
904 20/08/2022IronMan 70.3 de Vichy (03) - Triathlon L Arnaud CLÉMENT4620404h45'45''M18-246655Sa course
36 03/07/2022Triathlon du Plan d'Eau du Canada (60) - S Mathieu BEYLOT622801h35'30''MV1690Sa course
238 03/07/2022Triathlon du Plan d'Eau du Canada (60) - M Thomas CARTALIER03472h59'11''MS42732Sa course
929 03/07/2022IronMan 70.3 des Sables d'Olonne (85) - L Fabrice TORRES6522935h22'01''M55-593159Sa course
28 03/07/2022Triathlon du Plan d'Eau du Canada (60) - M Damien ERNOUF893472h22'14''MV1695Sa course
133 03/07/2022Triathlon du Plan d'Eau du Canada (60) - M Nicolas LEFRANCOIS03472h42'58''MS41563Sa course
1761 03/07/2022IronMan 70.3 des Sables d'Olonne (85) - L Denis GUEGAN022936h09'54''M50-5416122Sa course
138 03/07/2022IronMan 70.3 des Sables d'Olonne (85) - L Romain FAYARD9322934h37'02''M18-24696Sa course
15 03/07/2022Triathlon du Plan d'Eau du Canada (60) - M Antoine BEGUIVEN893472h18'00''MS32102Sa course
80 03/07/2022Triathlon du Plan d'Eau du Canada (60) - S Ludovic BACHUT02801h44'57''MV2573Sa course
25 03/07/2022Triathlon du Plan d'Eau du Canada (60) - M Gauthier COLIN03472h20'21''MS3697Sa course
50 03/07/2022Triathlon du Plan d'Eau du Canada (60) - M Thibault ANDRE843472h29'11''MV11088Sa course
277 03/07/2022Triathlon du Plan d'Eau du Canada (60) - M Patrick BOSSARD03473h09'00''MV41521Sa course
85 03/07/2022Triathlon du Plan d'Eau du Canada (60) - M Guillaume LELORRAIN733472h36'11''MS41077Sa course
193 03/07/2022Triathlon du Plan d'Eau du Canada (60) - M Jean-luc POTIER423472h52'00''MV31945Sa course
24 03/07/2022Triathlon du Plan d'Eau du Canada (60) - M Romuald LAVAUD03472h20'08''MV2297Sa course
227 03/07/2022Triathlon du Plan d'Eau du Canada (60) - M Christophe BERNADAT03472h56'44''MV32835Sa course
12 03/07/2022Triathlon du Plan d'Eau du Canada (60) - S Martin BOSSARD02801h27'59''MC16102Sa course
494 03/07/2022IronMan 70.3 des Sables d'Olonne (85) - L Pascal MINGRET7022935h00'17''M35-399878Sa course
12838826/06/2022Garmin Triathlon de Paris (75) - M Florence DECUGNIERE2420103h19'16''036Sa course
31 25/06/2022Triathlon de la Touraine (37) - M Antoine BEGUIVEN893232h10'19''MS3593Sa course
135 25/06/2022Triathlon de la Touraine (37) - M Henri LAMBOTTE403232h32'04''MV12358Sa course
1831925/06/2022Triathlon de la Touraine (37) - M Eve LECOMTE363232h38'12''FV1443Sa course
80 25/06/2022Triathlon de la Touraine (37) - M Francois COUPEL753232h23'37''MS4876Sa course
76 25/06/2022Triathlon de la Touraine (37) - M Mathieu BEYLOT623232h22'24''MV11077Sa course
222 19/06/2022Triathlon de Deauville (14) - M Guillaume LELORRAIN7314112h44'06''MS43785Sa course
8647919/06/2022Triathlon de Deauville (14) - M Coralie BESSON2814113h13'54''FV1939Sa course
309 19/06/2022Triathlon de Deauville (14) - M Fabrice TORRES6514112h48'25''MV4479Sa course
361 19/06/2022Triathlon de Deauville (14) - M Nicolas LEFRANCOIS014112h51'00''MS46175Sa course
134718019/06/2022Triathlon de Deauville (14) - M Stéphanie DESSALINS314113h55'17''FV2155Sa course
373 18/06/2022Triathlon de Deauville (14) - L Arnaud CLÉMENT465356h10'24''MV17031Sa course
86 18/06/2022Triathlon de Deauville (14) - L Thibault ANDRE845355h22'39''MV11885Sa course
120 18/06/2022Triathlon de Deauville (14) - L Romain DUPRILLOT865355h30'47''MS41479Sa course
169 05/06/2022Triathlon de Noirmoutier (85) - M Denis GUEGAN01913h18'13''MV31510Sa course
81 28/05/2022Triathlon de Porticcio (20) - L Arnaud CLÉMENT461007h36'54''MVE439Sa course
651 27/05/2022FrenchMan Triathlon - Carcans (33) - L Jean-luc POTIER429665h23'33''MV39929Sa course
420 26/05/2022FrenchMan Triathlon - Carcans (33) - M Jean-luc POTIER428162h33'27''MV33149Sa course
296 22/05/2022Triathlon de Pont-Audemer (27) - M Pascal LUCAS354122h59'15''MV33128Sa course
113 22/05/2022Triathlon de Vendome (41) - L Antoine BEGUIVEN893765h57'04''MS31768Sa course
6486922/05/2022L'Half des 2 Tours (17) - Triathlon L Stéphanie DESSALINS36607h12'09''FV2131Sa course
95 22/05/2022Triathlon de Vendome (41) - L Damien ERNOUF893765h51'44''MV12473Sa course
50 22/05/2022Triathlon de Vendome (41) - L Romain DUPRILLOT863765h33'26''MS41087Sa course
DNF 22/05/2022Triathlon de Vendome (41) - L Thomas CARTALIER0376MS4 Sa course
81 22/05/2022Triathlon de Vendome (41) - L Thibault ANDRE843765h44'51''MV11978Sa course
303 22/05/2022Triathlon de Vendome (41) - L Henri LAMBOTTE403767h12'22''MV15412Sa course
118 22/05/2022Triathlon de Vendome (41) - L Franck DECUGNIERE703765h59'35''MV21867Sa course
DNF 22/05/2022Triathlon du Chemin des Dames (02) - M Marie GRENOUILLET0588FSE Sa course
225 22/05/2022Triathlon de Vendome (41) - L Mathieu BEYLOT623766h36'18''MV14235Sa course
2571022/05/2022Triathlon de Vendome (41) - L Eve LECOMTE363766h49'10''FV1326Sa course
45 22/05/2022Triathlon de Vendome (41) - L Romain FAYARD933765h30'42''MS1489Sa course
100 22/05/2022Triathlon de Vendome (41) - L Ahmed HAMMAMI03765h52'16''MS21672Sa course
172 22/05/2022Triathlon de Pont-Audemer (27) - M Guillaume LELORRAIN734122h42'45''MS42759Sa course
139 22/05/2022Triathlon de Vendome (41) - L Vincent CAILLAUD713766h09'47''MV13060Sa course
171 22/05/2022Triathlon de Vendome (41) - L Francois COUPEL753766h17'36''MS41951Sa course
4445421/05/2022Triathlon de Vendome (41) - M Florence DECUGNIERE245623h12'48''FV2721Sa course
4666421/05/2022Triathlon de Vendome (41) - M Coralie BESSON285623h16'38''FV1817Sa course
43 21/05/2022Triathlon de Vendome (41) - S Mathieu BEYLOT622661h17'51''MV1886Sa course
135 21/05/2022Triathlon de Vendome (41) - M Arnaud CLÉMENT465622h41'29''MV11377Sa course
177 21/05/2022Triathlon de Vendome (41) - M Fabrice TORRES655622h45'32''MV4869Sa course
156 21/05/2022Triathlon de Vendome (41) - M Mathieu BEYLOT625622h43'43''MV11973Sa course
82 21/05/2022Triathlon de Vendome (41) - S Christophe BERNADAT02661h24'21''MV3670Sa course
369 21/05/2022Triathlon de Vendome (41) - M Cyril VIGNERON05623h03'40''MV24835Sa course
10 21/05/2022Triathlon de Vendome (41) - S Antoine BEGUIVEN892661h09'13''MS31109Sa course
12 21/05/2022Triathlon de Vendome (41) - S Damien ERNOUF892661h09'41''MV11102Sa course
232 21/05/2022Triathlon de Vendome (41) - M Jacques BROCHET05622h51'01''MV23359Sa course
42 21/05/2022Triathlon de Vendome (41) - M Damien ERNOUF895622h30'41''MV1495Sa course
143 15/05/2022Triathlon de la Vallée de l'Iton (27) - S Jérôme VESPASIEN02321h39'02''MSE5338Sa course
56 15/05/2022Triathlon de la Vallée de l'Iton (27) - S Vincent CAILLAUD712321h21'45''MVE1077Sa course
90 15/05/2022Triathlon de la Vallée de l'Iton (27) - S Nicolas LEFRANCOIS02321h29'08''MSE3761Sa course
28 01/05/2022Triathlon de l'Âme (45) - M Romain DUPRILLOT862692h22'22''MS4493Sa course
146 01/05/2022Triathlon de l'Âme (45) - M Thomas CARTALIER02692h43'44''MS42746Sa course
153501/05/2022Triathlon de l'Âme (45) - M Eve LECOMTE362692h45'15''FV1143Sa course
128 01/05/2022Triathlon de l'Âme (45) - M Pascal MINGRET702692h40'41''MS42453Sa course
58 01/05/2022Triathlon de l'Âme (45) - M Antoine BEGUIVEN892692h26'27''MS31380Sa course
142 01/05/2022Triathlon de l'Âme (45) - M Fabrice TORRES652692h43'34''MV4648Sa course
22 23/04/2022Duathlon de Noyon (60) - S Antoine BEGUIVEN8912854'35''MSE1784Sa course
63 23/04/2022Duathlon de Noyon (60) - S Romain FAYARD9312858'23''MSE4446Sa course
54 23/04/2022Duathlon de Noyon (60) - S Mathis HOCHMUTH012857'38''MSE3754Sa course
60 23/04/2022Duathlon de Noyon (60) - S Fabien DE JESUS LOURENCO012858'12''MSE4248Sa course
107 18/04/2022Duathlon de Meaux (77) - S Romain FAYARD933711h07'18''MSE7372Sa course
185 18/04/2022Duathlon de Meaux (77) - S Pascal MINGRET703711h12'47''MSE11151Sa course
252 18/04/2022Duathlon de Meaux (77) - S Henri LAMBOTTE403711h17'27''MVE5833Sa course
228 18/04/2022Duathlon de Meaux (77) - S Romuald LAVAUD03711h15'40''MVE5039Sa course
111 18/04/2022Duathlon de Meaux (77) - S Fabien DE JESUS LOURENCO03711h07'31''MSE7571Sa course
44 18/04/2022Duathlon de Meaux (77) - S Romain DUPRILLOT863711h03'12''MSE3490Sa course
238 18/04/2022Duathlon de Meaux (77) - S Thomas CARTALIER03711h16'17''MSE13036Sa course
34 18/04/2022Duathlon de Meaux (77) - S Antoine BEGUIVEN893711h02'13''MSE2694Sa course
125 10/04/2022Duathlon Versailles Grand Parc (78) - S Romuald LAVAUD02581h06'54''MV2151Sa course
43 10/04/2022Duathlon Versailles Grand Parc (78) - S Romain DUPRILLOT862581h01'16''MS4185Sa course
178 10/04/2022Duathlon Versailles Grand Parc (78) - S Franck DECUGNIERE702581h13'03''MV2330Sa course
173 10/04/2022Duathlon Versailles Grand Parc (78) - S Guillaume LELORRAIN732581h12'40''MS4732Sa course
207 10/04/2022Duathlon Versailles Grand Parc (78) - S Thomas CARTALIER02581h16'29''MS4918Sa course
177 10/04/2022Duathlon Versailles Grand Parc (78) - S Jean-luc POTIER422581h12'49''MV3330Sa course
82 10/04/2022Duathlon Versailles Grand Parc (78) - S Martin BOSSARD02581h04'01''MCA2369Sa course
29 10/04/2022Duathlon Versailles Grand Parc (78) - S Antoine BEGUIVEN8925859'43''MS3491Sa course
1801510/04/2022Duathlon Versailles Grand Parc (78) - S Elise BERTRAND02581h13'17''FJU929Sa course
Pas de résultats pour ce club

Résultats des TRI-CUP de la saison

Résultats du tri-cup-l

AnnéeCltClt/F TCNomIPRGAClt/GA
202254795 Arnaud CLÉMENT46MV276

Résultats des TRI-CUP de la saison

Résultats du tri-cup-m

AnnéeCltClt/F TCNomIPRGAClt/GA
2022267275 Antoine BEGUIVEN89MS355
202254432221 Guillaume LELORRAIN0MS471
2022655196 Fabrice TORRES65MV434
2022982104 Pascal LUCAS35MV3107

Résultats des TRI-CUP des saisons passées

Résultats du TRI-CUP LD

TRI-CUPAnnéeCltClt/F TCNomIPRGAClt/GA
TRI-CUP LD2019286266 Thomas DURAND0MJU1
TRI-CUP LD2019802119 Kevin VANORLE38MS3105
TRI-CUP LD2018365258 Antoine BEGUIVEN89MS262
TRI-CUP LD2018627196 Thomas DURAND0MJU3

Résultats du TRI-CUP M

TRI-CUPAnnéeCltClt/F TCNomIPRGAClt/GA
TRI-CUP M202126115214 Guillaume LELORRAIN0MS433
TRI-CUP M20183017261 Claudine YEDIKARDACHIAN0FV21
TRI-CUP M2018575201 Thierry BARRE55MV275
TRI-CUP M2018665181 Thomas DURAND0MJU5
TRI-CUP M2018111310823 Muriel JOUAS0FV310

Podiums du club

Clt/GAGADateEpreuveNomIPRClt FCltNbTempsIP
3MV223/10/2022Duathlon d'Arboussols (66) - SChristophe DEDOUCHE014271h30'37''53RésultatsSa course
2MV1 02/10/2022SwimRun Cergy Val d'Oise (95) - MVincent CAILLAUD7112501h58'29''80RésultatsSa course
3MS318/09/2022VentouxMan (84) - ExpérienceGeoffroi SOURON091072h27'15''102RésultatsSa course
2MS311/09/2022TriaLong Ile de France (77) - LGauthier COLIN0172344h22'29''97RésultatsSa course
2MV203/07/2022Triathlon du Plan d'Eau du Canada (60) - MRomuald LAVAUD0243472h20'08''97RésultatsSa course
2MS303/07/2022Triathlon du Plan d'Eau du Canada (60) - MAntoine BEGUIVEN89153472h18'00''102RésultatsSa course
3FV122/05/2022Triathlon de Vendome (41) - LEve LECOMTE36102573766h49'10''26RésultatsSa course
1MS321/05/2022Triathlon de Vendome (41) - SAntoine BEGUIVEN89102661h09'13''109RésultatsSa course
1MV121/05/2022Triathlon de Vendome (41) - SDamien ERNOUF89122661h09'41''102RésultatsSa course
1FV101/05/2022Triathlon de l'Âme (45) - MEve LECOMTE3651532692h45'15''43RésultatsSa course
1MS410/04/2022Duathlon Versailles Grand Parc (78) - SRomain DUPRILLOT86432581h01'16''85RésultatsSa course
3MV310/04/2022Duathlon Versailles Grand Parc (78) - SJean-luc POTIER421772581h12'49''30RésultatsSa course
1MV210/04/2022Duathlon Versailles Grand Parc (78) - SRomuald LAVAUD01252581h06'54''51RésultatsSa course
3MV210/04/2022Duathlon Versailles Grand Parc (78) - SFranck DECUGNIERE701782581h13'03''30RésultatsSa course
3MV412/09/2021Triathlon du Plan d'Eau du Canada (60) - MFabrice TORRES651212872h37'39''58RésultatsSa course
3MV205/09/2021Triathlon de l'Omois (02) - SRomuald LAVAUD0153141h13'08''101RésultatsSa course
3FSE29/08/2021Triathlon du Château de Chantilly (60) - MSonia TORRES773693372h56'16''81RésultatsSa course
1MS4 22/08/2021Triathlon de Grand Cognac (16) - XS 249538'42''77RésultatsSa course
1FS106/09/2020Triathlon des Cadets de Gascogne - CastelMan (47) - LSonia TORRES77131441755h44'11''18RésultatsSa course
3FSE29/09/2019Triathlon d'Ardres (62) - MCassandre HUCK03721961h57'39''62RésultatsSa course
1MV222/09/2019Cross Triathlon de Vienne-Condrieu (69) - MCedric FLEURETON012051h46'04''246RésultatsSa course
1FVE26/08/2018Triathlon du Château de Chantilly (60) - MClaudine YEDIKARDACHIAN04377182h42'26''98RésultatsSa course
1FVE08/07/2018Triathlon de l'Aube-Troyes-Dienville (10) - MClaudine YEDIKARDACHIAN05552332h28'51''77RésultatsSa course
1FV216/06/2018Triathlon du Plan d'Eau du Canada (60) - MClaudine YEDIKARDACHIAN01674492h25'16''86RésultatsSa course
3FS410/06/2018Triathlon d'Enghien (95) - MEve LECOMTE36203484203h11'42''17RésultatsSa course
2FVE13/05/2018Triathlon de la Vallée de l'Iton (27) - MClaudine YEDIKARDACHIAN03803142h28'13''75RésultatsSa course
3MV524/09/2017Cross Triathlon de Jablines Annet (77) - MJean CARMIER01753012h10'48''43RésultatsSa course
1MVE24/09/2017Triskel Race (56) - Triathlon LFabien CROS83102924h22'44''109RésultatsSa course
3MV204/06/2017Half Doussard (74) - Triathlon LFabien CROS83273904h27'50''97RésultatsSa course
3MV521/05/2017Triathlon d'Enghien (95) - MJean CARMIER03494563h02'15''22RésultatsSa course
1MV225/09/2016Cross Triathlon de Jablines Annet (77) - MFabien CROS8352871h40'25''176RésultatsSa course
1MS325/09/2016Cross Triathlon de Jablines Annet (77) - MRomain DUPRILLOT86262871h51'22''94RésultatsSa course
2MS125/09/2016Cross Triathlon de Jablines Annet (77) - MAntoine BEGUIVEN89122871h45'12''103RésultatsSa course
3MV221/08/2016Triathlon de la Ferté Bernard (72) - MFabien CROS83192592h09'47''97RésultatsSa course
3FSE25/06/2016Triathlon de la Touraine (37) - MMorgan BRANCHOUX03503402h11'23''87RésultatsSa course
1MSE25/06/2016Triathlon de la Touraine (37) - MEtienne DIEMUNSCH013401h50'19''304RésultatsSa course
3MV522/05/2016Triathlon d'Enghien (95) - MJean CARMIER03114093h01'22''22RésultatsSa course
3MVE22/05/2016Triathlon du Chemin des Dames (02) - MFabien CROS8383522h09'37''139RésultatsSa course
1MS122/05/2016Triathlon d'Enghien (95) - MAntoine BEGUIVEN89114092h16'04''106RésultatsSa course
2FS115/05/2016Triathlon de Mimizan (40) - MMorgan BRANCHOUX03947142h16'54''88RésultatsSa course
1MSE17/04/2016Triathlon de Cannes (06) - LEtienne DIEMUNSCH018293h32'08''466RésultatsSa course
1MS328/06/2015Triathlon de Fains (27) - Format MBrice CARPELS011782h13'10''224RésultatsSa course
2MS121/06/2015Triathlon du Plan d'Eau du Canada (60) - LAntoine BEGUIVEN89462844h48'00''86RésultatsSa course
1MSE14/06/2015Triathlon du Sénonais (89) - MBrice CARPELS011442h16'12''212RésultatsSa course

Résultats aux championnats de France

DateNomIPRClt FCltNbTempsGAClt/GA
02/07/2017Jean CARMIER06036536h26'49''MV515RésultatsSa course

Coureurs actuels du Club

Romain FAYARD
IPR : 93
Catégorie de niveau : 1ère catégorie
Antoine BEGUIVEN
IPR : 89
Catégorie de niveau : 2ème catégorie
Damien ERNOUF
IPR : 89
Catégorie de niveau : 2ème catégorie
Romain DUPRILLOT
IPR : 86
Catégorie de niveau : 2ème catégorie
Thibault ANDRE
IPR : 84
Catégorie de niveau : 2ème catégorie
Francois COUPEL
IPR : 75
Catégorie de niveau : 3ème catégorie
Vincent CAILLAUD
IPR : 71
Catégorie de niveau : 3ème catégorie
Pascal MINGRET
IPR : 70
Catégorie de niveau : 3ème catégorie
Franck DECUGNIERE
IPR : 70
Catégorie de niveau : 3ème catégorie
Fabrice TORRES
IPR : 65
Catégorie de niveau : 3ème catégorie
Mathieu BEYLOT
IPR : 62
Catégorie de niveau : 3ème catégorie
Arnaud CLÉMENT
IPR : 46
Catégorie de niveau : 4ème catégorie
Jean-luc POTIER
IPR : 42
Catégorie de niveau : 4ème catégorie
Henri LAMBOTTE
IPR : 40
Catégorie de niveau : 4ème catégorie
Eve LECOMTE
IPR : 36
Catégorie de niveau : 4ème catégorie
Pascal LUCAS
IPR : 35
Catégorie de niveau : 4ème catégorie
Coralie BESSON
IPR : 28
Catégorie de niveau : 4ème catégorie
Florence DECUGNIERE
IPR : 24
Catégorie de niveau : 5ème catégorie
Stéphanie DESSALINS
IPR : 3
Catégorie de niveau : 5ème catégorie
Elise BERTRAND
IPR : N/A
Catégorie de niveau : Non classée
Geoffroi SOURON
IPR : N/A
Catégorie de niveau : Non classé
Jérôme VESPASIEN
IPR : N/A
Catégorie de niveau : Non classé
Gauthier COLIN
IPR : N/A
Catégorie de niveau : Non classé
Romuald LAVAUD
IPR : N/A
Catégorie de niveau : Non classé
Cyril VIGNERON
IPR : N/A
Catégorie de niveau : Non classé
Denis GUEGAN
IPR : N/A
Catégorie de niveau : Non classé
Fabien DE JESUS LOURENCO
IPR : N/A
Catégorie de niveau : Non classé
Benjamin MASSON
IPR : N/A
Catégorie de niveau : Non classé
Christophe BERNADAT
IPR : N/A
Catégorie de niveau : Non classé
Martin BOSSARD
IPR : N/A
Catégorie de niveau : Non classé
Nicolas LEFRANCOIS
IPR : N/A
Catégorie de niveau : Non classé
Ahmed HAMMAMI
IPR : N/A
Catégorie de niveau : Non classé
Christophe DEDOUCHE
IPR : N/A
Catégorie de niveau : Non classé
Patrick BOSSARD
IPR : N/A
Catégorie de niveau : Non classé
Ludovic BACHUT
IPR : N/A
Catégorie de niveau : Non classé
Thomas CARTALIER
IPR : N/A
Catégorie de niveau : Non classé
Jacques BROCHET
IPR : N/A
Catégorie de niveau : Non classé
Mathis HOCHMUTH
IPR : N/A
Catégorie de niveau : Non classé
IPR : N/A
Catégorie de niveau : 
IPR : N/A
Catégorie de niveau :